Weather observations for the past three days for
Sheridan County Airport
| Date | Time (mdt) | Wind (kph) | Vis. (km) | Weather | Sky Cond. | Temperature (ºC) | Relative Humidity | Wind Chill (°C) | Heat Index (°C) | Pressure | Precipitation (cm) | ||||||
|---|---|---|---|---|---|---|---|---|---|---|---|---|---|---|---|---|---|
| Air | Dwpt | 6 hour | altimeter (cm) | sea level (mb) | 1 hr | 3 hr | 6 hr | ||||||||||
| Max. | Min. | ||||||||||||||||
| 01 | 16:53 | S 28 G 43 | 16.09 | Overcast | OVC110 | 24.4 | 7.2 | 33% | 25 | 76 | 1010.5 | ||||||
| 01 | 15:53 | SW 31 G 48 | 16.09 | Mostly Cloudy | FEW060 SCT090 BKN110 | 25.6 | 6.1 | 29% | 26 | 76 | 1010.0 | ||||||
| 01 | 14:53 | SW 13 | 16.09 | Fair | CLR | 28.3 | 6.1 | 24% | 27 | 75.97 | 1009.5 | ||||||
| 01 | 13:53 | S 20 G 26 | 16.09 | Fair | CLR | 28.3 | 6.7 | 25% | 27 | 75.97 | 1009.5 | ||||||
| 01 | 12:53 | SE 17 G 28 | 16.09 | Fair | CLR | 28.9 | 6.7 | 25% | 28 | 76.02 | 1009.9 | ||||||
| 01 | 11:53 | Vrbl 7 | 16.09 | Fair | CLR | 26.7 | 5 | 26.7 | 11.1 | 25% | 26 | 76.07 | 1011.0 | ||||
| 01 | 10:53 | N 11 | 16.09 | Fair | CLR | 23.3 | 3.3 | 27% | 76.12 | 1012.3 | |||||||
| 01 | 09:53 | NW 11 | 16.09 | Fair | CLR | 21.1 | 2.2 | 29% | 76.12 | 1012.4 | |||||||
| 01 | 08:53 | N 11 | 16.09 | Fair | CLR | 16.7 | 1.1 | 35% | 76.12 | 1012.9 | |||||||
| 01 | 07:53 | SW 6 | 16.09 | Fair | CLR | 13.3 | 3.9 | 53% | 76.12 | 1012.6 | |||||||
| 01 | 06:53 | S 6 | 16.09 | Fair | CLR | 11.7 | 3.9 | 59% | 76.12 | 1011.9 | |||||||
| 01 | 05:53 | W 6 | 16.09 | Fair | CLR | 12.2 | 2.8 | 14.4 | 11.1 | 53% | 76.1 | 1011.4 | |||||
| 01 | 04:53 | SW 6 | 16.09 | Fair | CLR | 11.1 | 3.9 | 61% | 76.12 | 1012.1 | |||||||
| 01 | 03:53 | Vrbl 6 | 16.09 | Fair | CLR | 13.3 | 2.2 | 47% | 76.15 | 1011.9 | |||||||
| 01 | 02:53 | NW 7 | 16.09 | Fair | CLR | 12.8 | 1.7 | 47% | 76.17 | 1012.6 | |||||||
| 01 | 01:53 | NW 13 | 16.09 | Fair | CLR | 12.2 | 2.2 | 51% | 76.23 | 1013.4 | |||||||
| 01 | 00:53 | N 9 | 16.09 | Fair | CLR | 11.7 | 2.2 | 52% | 76.28 | 1014.4 | |||||||
| 31 | 23:53 | S 6 | 16.09 | Fair | CLR | 11.7 | 2.2 | 27.2 | 11.1 | 52% | 76.3 | 1015.0 | |||||
| 31 | 22:53 | SW 11 | 16.09 | Fair | CLR | 11.1 | 2.2 | 55% | 76.3 | 1015.3 | |||||||
| 31 | 21:53 | S 7 | 16.09 | Fair | CLR | 11.7 | 2.2 | 52% | 76.33 | 1015.6 | |||||||
| 31 | 20:53 | S 7 | 16.09 | Fair | CLR | 13.9 | 2.2 | 45% | 76.28 | 1014.9 | |||||||
| 31 | 19:53 | Calm | 16.09 | Fair | CLR | 18.3 | 2.8 | 36% | 76.25 | 1014.7 | |||||||
| 31 | 18:53 | NE 9 | 16.09 | Fair | CLR | 25.6 | 0 | 19% | 25 | 76.23 | 1014.0 | ||||||
| 31 | 17:53 | Vrbl 7 | 16.09 | Fair | CLR | 27.2 | -0.6 | 27.2 | 21.1 | 16% | 26 | 76.23 | 1013.6 | ||||
| 31 | 16:53 | Calm | 16.09 | Fair | CLR | 26.7 | 0.6 | 18% | 26 | 76.25 | 1014.4 | ||||||
| 31 | 15:53 | N 13 | 16.09 | Fair | CLR | 26.7 | 0 | 17% | 26 | 76.28 | 1014.6 | ||||||
| 31 | 14:53 | N 9 | 16.09 | Fair | CLR | 25.6 | 0.6 | 19% | 25 | 76.35 | 1015.6 | ||||||
| 31 | 13:53 | Calm | 16.09 | Fair | CLR | 23.9 | 0 | 21% | 24 | 76.38 | 1016.5 | ||||||
| 31 | 12:53 | Calm | 16.09 | Fair | CLR | 23.3 | 0.6 | 22% | 76.43 | 1016.6 | |||||||
| 31 | 11:53 | Calm | 16.09 | Fair | CLR | 21.7 | 1.7 | 21.7 | 7.2 | 27% | 76.45 | 1017.4 | |||||
| 31 | 10:53 | E 13 | 16.09 | Fair | CLR | 20.6 | 1.7 | 29% | 76.45 | 1017.5 | |||||||
| 31 | 09:53 | Vrbl 7 | 16.09 | Fair | CLR | 18.9 | 2.8 | 34% | 76.43 | 1017.4 | |||||||
| 31 | 08:53 | Calm | 16.09 | Fair | CLR | 17.8 | 2.2 | 35% | 76.43 | 1017.0 | |||||||
| 31 | 07:53 | SE 7 | 16.09 | Fair | CLR | 11.7 | 6.1 | 69% | 76.38 | 1016.9 | |||||||
| 31 | 06:53 | S 11 | 16.09 | Fair | CLR | 7.8 | 3.9 | 77% | 6 | 76.33 | 1015.9 | ||||||
| 31 | 05:53 | Vrbl 7 | 16.09 | Fair | CLR | 7.8 | 5 | 11.1 | 5 | 83% | 7 | 76.28 | 1015.2 | ||||
| 31 | 04:53 | Calm | 16.09 | Fair | CLR | 5.6 | 5 | 96% | 76.28 | 1015.1 | |||||||
| 31 | 03:53 | SW 6 | 16.09 | Fair | CLR | 6.7 | 5 | 89% | 76.2 | 1014.2 | |||||||
| 31 | 02:53 | NW 6 | 16.09 | Fair | CLR | 6.7 | 5.6 | 93% | 76.15 | 1013.8 | |||||||
| 31 | 01:53 | N 6 | 16.09 | Fair | CLR | 6.7 | 5 | 89% | 76.12 | 1014.0 | |||||||
| 31 | 00:53 | Calm | 16.09 | Fair | CLR | 9.4 | 6.7 | 83% | 76.15 | 1013.6 | |||||||
| 30 | 23:53 | Calm | 16.09 | Fair | CLR | 9.4 | 7.2 | 21.7 | 9.4 | 86% | 76.17 | 1013.3 | |||||
| 30 | 22:53 | S 11 | 16.09 | Fair | CLR | 10.6 | 7.8 | 83% | 76.17 | 1013.4 | |||||||
| 30 | 21:53 | Calm | 16.09 | Fair | CLR | 10 | 6.7 | 80% | 76.2 | 1013.7 | |||||||
| 30 | 20:53 | Calm | 16.09 | Fair | CLR | 12.2 | 7.2 | 72% | 76.17 | 1013.8 | |||||||
| 30 | 19:53 | N 6 | 16.09 | Fair | CLR | 16.1 | 8.3 | 60% | 76.12 | 1012.8 | |||||||
| 30 | 18:53 | NW 15 | 16.09 | Fair | CLR | 20.6 | 8.3 | 45% | 76.1 | 1011.9 | |||||||
| 30 | 17:53 | NW 22 | 16.09 | Fair | CLR | 21.7 | 7.2 | 23.9 | 15.6 | 39% | 76.07 | 1011.6 | |||||
| 30 | 16:53 | NW 24 | 16.09 | Fair | CLR | 22.8 | 8.3 | 40% | 76.02 | 1010.8 | |||||||
| 30 | 15:53 | Vrbl 7 | 16.09 | Fair | CLR | 22.8 | 8.9 | 41% | 76 | 1010.7 | |||||||
| 30 | 14:53 | Vrbl 7 | 16.09 | A Few Clouds | FEW100 | 20.6 | 9.4 | 49% | 76.05 | 1011.7 | |||||||
| 30 | 13:53 | NW 19 | 16.09 | Mostly Cloudy | FEW024 BKN070 BKN085 | 17.2 | 10.6 | 65% | 76.15 | 1013.3 | |||||||
| 30 | 12:53 | NW 54 G 72 | 16.09 | Partly Cloudy and Windy | FEW047 SCT055 SCT110 | 17.8 | 7.8 | 52% | 76.15 | 1013.1 | |||||||
| 30 | 11:53 | NW 28 | 16.09 | Partly Cloudy | SCT110 | 22.2 | 10 | 25 | 12.2 | 46% | 76 | 1010.3 | |||||
| 30 | 10:53 | NW 17 | 16.09 | Fair | CLR | 22.8 | 9.4 | 43% | 75.95 | 1009.6 | |||||||
| 30 | 09:53 | N 9 | 16.09 | Fair | CLR | 22.2 | 8.9 | 43% | 75.95 | 1009.7 | |||||||
| 30 | 08:53 | SW 6 | 16.09 | Fair | CLR | 16.7 | 10 | 65% | 75.95 | 1010.1 | |||||||
| 30 | 07:53 | Calm | 16.09 | Fair | CLR | 15 | 9.4 | 69% | 75.95 | 1010.1 | |||||||
| 30 | 06:53 | Calm | 16.09 | Fair | CLR | 13.9 | 10 | 78% | 75.92 | 1009.1 | |||||||
| 30 | 05:53 | Calm | 16.09 | Fair | CLR | 12.8 | 8.9 | 14.4 | 11.1 | 77% | 75.87 | 1008.6 | |||||
| 30 | 04:53 | Calm | 16.09 | Fair | CLR | 12.8 | 8.9 | 77% | 75.87 | 1008.7 | |||||||
| 30 | 03:53 | Calm | 16.09 | Fair | CLR | 11.7 | 8.9 | 83% | 75.87 | 1008.6 | |||||||
| 30 | 02:53 | S 11 | 16.09 | Fair | CLR | 11.1 | 8.9 | 86% | 75.87 | 1009.0 | |||||||
| 30 | 01:53 | NW 9 | 16.09 | Fair | CLR | 12.2 | 10.6 | 90% | 75.9 | 1008.8 | |||||||
| 30 | 00:53 | Calm | 16.09 | Fair | CLR | 14.4 | 10.6 | 78% | 75.87 | 1008.2 | |||||||
| 29 | 23:53 | S 6 | 16.09 | Fair | CLR | 14.4 | 10.6 | 25 | 13.3 | 78% | 75.92 | 1008.8 | |||||
| 29 | 22:53 | S 11 | 16.09 | Fair | CLR | 13.9 | 10.6 | 81% | 75.9 | 1009.0 | |||||||
| 29 | 21:53 | Calm | 16.09 | Fair | CLR | 15.6 | 11.1 | 75% | 75.92 | 1009.1 | |||||||
| 29 | 20:53 | Calm | 16.09 | Fair | CLR | 17.8 | 11.7 | 68% | 75.87 | 1008.5 | |||||||
| 29 | 19:53 | NW 6 | 16.09 | Fair | CLR | 19.4 | 11.7 | 61% | 75.84 | 1008.1 | |||||||
| 29 | 18:53 | Calm | 16.09 | Fair | CLR | 25 | 11.7 | 43% | 26 | 75.87 | 1007.9 | ||||||
| 29 | 17:53 | Calm | 16.09 | Overcast | OVC100 | 25 | 12.2 | 26.1 | 23.3 | 45% | 26 | 75.87 | 1008.1 | ||||
| Date | Time (mdt) | Wind (kph) | Vis. (km) | Weather | Sky Cond. | Air | Dwpt | Max. | Min. | Relative Humidity | Wind Chill (°C) | Heat Index (°C) | altimeter (cm) | sea level (mb) | 1 hr | 3 hr | 6 hr |
| 6 hour | |||||||||||||||||
| Temperature (ºC) | Pressure | Precipitation (cm) | |||||||||||||||